Wind_Speed
14 15 15 15 14 14 14 14 13 13 13 11 9 10 9 9 10 14 17 13 13 11 14 14 15 13 13 13 14 11 7 6 11 4 11 13 12 5 1 7 11 8 4 4 11
19 19 19 18 18 17 16 16 15 14 14 13 10 10 11 12 14 13 16 16 16 16 15 17 17 14 15 14 16 16 14 3 13 21 10 16 7 7 4 6 7 7 7 6 10
21 21 21 22 22 22 22 21 19 17 17 15 12 11 11 14 18 16 16 16 18 22 19 18 15 14 12 10 17 18 14 11 12 14 11 7 8 9 7 6 8 9 11 13 11
19 20 21 21 22 23 23 23 24 23 21 19 16 13 12 13 21 20 17 17 17 22 21 21 15 13 10 13 18 17 16 13 14 18 16 12 13 10 12 7 8 9 10 15 12
18 18 18 18 19 20 21 22 24 25 25 25 22 18 15 17 23 18 19 20 20 19 24 24 22 19 15 19 18 18 19 13 14 17 19 14 10 12 10 13 12 7 6 14 14
18 17 17 17 19 19 20 21 22 22 24 25 26 23 21 25 25 19 20 22 23 22 22 24 23 26 27 24 18 23 23 20 12 16 15 17 15 12 10 10 14 10 6 11 16
24 25 25 25 27 27 27 27 26 25 24 23 23 23 24 33 28 24 26 23 24 26 24 26 31 31 29 26 29 29 27 23 17 20 13 15 15 8 10 10 9 7 9 9 11
27 29 30 31 31 32 32 33 33 31 30 27 26 23 24 30 34 34 29 28 27 29 30 32 34 34 35 33 32 32 30 22 23 26 14 15 14 11 14 11 7 5 8 9 11
32 33 35 36 38 39 39 40 42 41 38 35 32 30 30 30 31 34 34 34 33 33 34 37 36 34 38 39 37 38 29 24 27 32 24 21 15 12 13 9 7 8 6 5 6
37 39 40 41 41 41 42 43 45 45 46 46 42 39 39 37 34 34 34 41 38 38 40 39 37 36 39 42 38 33 29 28 28 28 30 26 19 17 17 14 9 9 6 4 2
40 43 43 42 39 40 44 45 42 45 44 46 47 48 46 43 43 43 38 43 46 45 41 39 40 37 28 30 34 37 35 31 29 31 27 26 28 20 19 18 12 8 8 4 3
42 43 46 47 49 51 52 55 53 49 47 46 46 49 50 49 51 50 48 46 46 48 45 45 40 28 34 36 35 39 40 33 29 31 26 29 28 23 21 14 16 9 9 6 2
47 48 49 51 53 55 56 57 60 62 57 57 54 50 49 52 55 56 55 54 50 48 51 49 33 35 40 39 38 40 40 35 27 34 32 32 29 36 28 25 23 18 13 8 6
51 51 53 51 52 52 53 51 50 50 53 50 52 52 51 50 54 56 56 59 59 53 52 56 43 46 44 42 39 40 31 34 35 37 40 37 39 39 31 25 19 21 14 13 5
55 51 50 54 51 48 38 32 30 32 43 46 44 46 46 48 46 47 56 59 64 63 59 55 52 52 46 40 39 27 32 38 40 39 42 43 43 39 34 26 20 24 16 12 9
56 49 46 45 44 34 28 28 30 34 42 45 40 37 33 38 42 39 49 57 65 70 65 61 57 58 48 40 44 36 37 41 45 45 53 45 49 41 39 24 21 23 19 15 12
54 42 40 39 30 31 31 31 39 44 41 36 35 37 41 37 41 39 39 52 63 70 70 67 65 63 57 50 48 46 46 47 52 58 60 45 53 42 37 26 29 22 21 18 13
45 39 38 27 30 23 24 31 34 31 31 31 35 35 34 37 41 45 43 49 57 71 73 74 71 67 62 58 53 53 51 56 58 59 58 47 58 46 39 34 30 26 26 21 16
40 37 27 32 26 29 34 39 37 41 43 45 41 43 44 39 39 39 44 47 49 65 75 77 76 70 69 62 55 53 57 50 53 57 56 53 53 38 42 37 35 32 38 30 20
35 28 32 26 29 35 39 38 35 36 38 42 44 42 39 42 42 39 47 52 50 55 72 79 79 70 70 63 57 53 51 51 55 58 61 55 55 41 42 40 38 33 41 34 23
33 27 32 28 33 39 41 40 37 38 39 40 39 39 38 40 43 42 51 54 55 58 56 71 81 67 64 66 60 58 57 56 49 55 57 49 49 37 38 39 35 26 23 27 21
29 29 30 29 35 38 42 43 40 38 39 39 34 31 31 35 40 48 47 55 52 57 64 59 79 70 67 64 61 60 60 57 56 56 58 51 47 41 43 39 37 30 24 22 26
23 30 30 32 37 39 41 40 40 36 37 33 30 28 32 35 36 33 34 42 53 53 59 55 64 72 59 58 65 65 62 58 54 50 53 50 37 46 41 47 44 36 34 32 27
23 30 30 36 40 43 40 39 35 34 32 30 27 28 32 33 31 30 27 33 43 55 47 62 47 63 66 67 69 67 62 61 60 54 49 52 37 39 43 38 38 43 44 41 36
27 27 34 39 40 42 43 39 35 29 26 26 26 27 27 29 28 32 31 34 40 46 48 61 47 52 71 69 66 67 62 60 63 56 54 39 34 29 39 41 42 39 41 46 44
27 31 34 38 42 42 39 39 32 26 25 27 30 22 27 24 26 29 31 30 39 43 53 57 56 55 61 68 62 65 61 62 61 57 50 36 35 35 39 45 45 41 44 36 29
28 30 32 38 38 38 38 36 30 25 23 26 25 19 18 17 20 22 22 19 31 45 54 46 52 57 55 68 63 64 67 63 60 58 50 41 40 48 43 41 37 37 34 27 25
Wind_Direction
304 303 302 302 301 301 303 305 303 303 303 298 284 271 256 255 244 232 229 241 234 218 227 236 239 233 229 202 209 228 141 55 112 205 160 141 163 163 138 132 123 126 118 90 125
291 291 292 293 294 294 293 293 295 297 295 296 297 276 261 247 250 242 232 226 219 222 222 228 231 226 233 211 205 217 222 134 160 159 165 137 142 147 110 121 121 123 114 100 124
290 290 289 288 285 284 282 282 283 285 285 287 287 286 273 251 247 242 243 235 219 227 213 229 236 236 234 215 209 220 221 193 187 182 138 137 129 118 124 138 127 121 121 119 116
293 292 290 289 288 285 282 279 277 273 270 272 271 271 271 265 248 243 239 242 228 231 226 220 227 232 222 215 212 219 223 205 212 195 169 141 126 120 101 100 111 118 129 136 129
299 298 297 296 293 291 288 283 278 275 273 268 264 262 256 257 258 252 242 237 238 229 228 220 222 227 218 213 212 211 211 212 205 223 183 143 181 127 103 111 108 108 138 140 143
304 300 298 296 295 293 291 290 288 282 276 271 266 258 255 251 259 254 251 241 235 234 231 229 219 221 220 215 203 214 206 213 211 188 171 157 164 146 128 103 115 112 129 153 162
304 301 300 297 295 292 290 286 281 279 279 276 271 265 254 251 254 250 247 240 239 235 229 226 225 220 220 219 204 210 216 217 216 223 222 181 168 163 178 117 113 115 136 146 158
303 301 299 296 295 292 289 286 282 277 271 267 268 267 261 255 247 248 246 246 237 232 228 226 224 222 221 218 214 221 227 222 220 229 197 187 185 166 148 147 142 164 133 145 158
306 304 301 298 295 294 293 291 287 282 274 270 264 258 257 258 259 252 247 247 241 239 233 229 225 223 225 224 218 223 225 225 214 222 207 186 180 183 182 166 141 149 120 125 148
305 301 299 298 292 290 292 291 284 279 276 273 268 264 257 252 254 255 246 244 243 240 240 235 231 228 227 227 229 230 226 219 217 227 227 221 198 196 208 190 159 152 140 96 105
307 305 304 302 301 293 297 297 288 280 273 269 264 262 260 254 250 248 243 243 239 238 240 243 235 232 242 241 238 234 232 223 213 223 228 221 210 202 200 198 174 189 178 273 226
312 312 312 311 307 305 304 301 293 289 283 274 263 258 252 252 249 244 241 238 241 239 237 238 239 228 228 227 228 234 233 230 218 229 225 207 195 201 189 173 185 164 102 104 74
318 319 318 316 313 311 304 301 297 291 287 281 273 258 248 248 247 245 240 239 236 236 235 237 236 233 227 227 223 225 228 228 225 229 227 232 214 207 200 187 188 157 155 136 107
321 321 318 315 312 310 305 306 302 298 287 285 278 272 262 252 244 242 236 236 235 230 231 232 226 227 224 225 227 225 226 226 223 222 229 230 230 219 207 191 167 170 149 148 121
320 320 317 313 312 311 307 300 295 293 289 283 280 274 266 256 251 240 239 232 234 228 227 231 224 228 225 223 225 217 220 223 223 223 227 232 233 224 215 193 179 164 150 150 139
318 319 316 313 315 314 302 290 294 292 291 288 282 275 278 271 258 245 240 232 230 229 223 226 218 225 221 219 222 209 211 216 217 219 223 223 228 225 222 180 185 183 169 157 136
316 319 314 317 316 315 310 290 287 290 295 286 274 270 267 263 265 258 246 236 231 226 220 218 218 217 219 214 213 209 207 210 211 214 222 216 230 218 222 183 174 179 165 154 140
315 317 316 312 316 317 319 311 305 292 282 283 285 282 279 255 251 254 248 243 234 228 221 216 215 213 214 216 216 209 210 214 212 214 219 216 226 225 220 209 189 183 179 163 154
316 316 312 311 309 323 322 316 306 291 281 276 275 280 281 260 248 237 241 243 237 232 225 217 212 210 212 213 214 212 212 216 217 219 220 218 224 224 215 218 202 190 187 174 179
316 308 309 312 323 322 324 319 312 306 294 287 283 278 267 254 252 249 231 239 236 234 231 220 212 207 209 209 209 216 216 213 215 219 223 220 220 212 216 217 200 198 194 177 189
316 305 314 312 319 322 324 318 307 303 291 285 283 275 263 258 259 253 234 229 231 228 227 227 216 207 207 204 205 209 212 214 221 224 228 225 226 207 208 220 216 214 185 183 192
316 311 315 308 311 317 320 315 308 298 284 284 278 270 267 264 257 254 241 231 226 230 222 227 223 208 207 203 200 209 211 213 212 216 223 222 222 212 198 210 224 223 220 202 197
317 319 313 312 315 316 320 314 312 299 290 287 277 276 269 266 261 255 248 236 228 227 224 215 228 214 207 202 199 204 208 212 216 215 221 221 214 217 211 202 210 222 224 219 212
325 325 319 324 325 325 326 322 311 300 292 287 276 285 274 267 261 255 257 247 229 224 226 211 219 220 204 197 201 202 204 207 211 213 213 217 208 207 216 206 210 218 222 222 222
333 333 333 332 333 335 332 326 313 300 299 299 301 293 273 261 254 265 265 257 236 225 219 216 208 218 206 198 202 202 203 207 212 213 217 209 197 197 205 209 213 212 217 227 227
343 341 339 345 344 340 335 330 322 310 309 312 313 289 273 275 264 259 263 256 245 226 216 220 207 215 209 199 201 202 203 207 211 214 214 196 188 180 181 187 198 206 212 223 224
350 350 352 353 348 349 343 338 324 323 331 324 313 287 277 284 253 259 255 250 235 223 217 219 207 208 202 196 198 199 203 207 210 210 209 196 172 179 185 194 199 208 211 205 210
Height
5868 5867 5866 5865 5864 5864 5862 5861 5861 5860 5859 5859 5860 5859 5859 5859 5858 5857 5858 5861 5860 5862 5864 5865 5866 5868 5870 5872 5872 5873 5877 5875 5876 5879 5881 5881 5882 5883 5882 5882 5883 5884 5886 5887 5889
5865 5863 5862 5861 5860 5860 5859 5859 5858 5858 5857 5857 5857 5856 5856 5856 5855 5855 5855 5856 5858 5859 5862 5862 5863 5866 5868 5871 5871 5872 5875 5876 5878 5878 5879 5874 5882 5883 5883 5882 5883 5884 5885 5888 5889
5860 5859 5857 5856 5856 5855 5854 5854 5855 5855 5854 5854 5854 5854 5853 5852 5851 5851 5851 5853 5855 5855 5858 5860 5862 5865 5868 5870 5869 5870 5873 5876 5880 5880 5877 5878 5878 5880 5881 5882 5883 5884 5885 5888 5890
5855 5854 5853 5851 5850 5849 5849 5849 5848 5849 5849 5849 5849 5851 5850 5849 5847 5847 5849 5850 5851 5851 5855 5858 5860 5864 5866 5867 5868 5869 5871 5874 5877 5880 5878 5877 5880 5881 5880 5880 5881 5883 5884 5887 5889
5850 5848 5847 5846 5845 5844 5844 5843 5842 5842 5843 5844 5845 5846 5846 5844 5841 5845 5845 5846 5846 5848 5849 5853 5857 5860 5862 5863 5866 5867 5868 5870 5873 5878 5877 5877 5880 5880 5879 5878 5879 5884 5886 5887 5889
5846 5844 5843 5842 5841 5840 5839 5838 5836 5837 5836 5837 5838 5841 5842 5838 5837 5840 5840 5841 5841 5843 5845 5849 5853 5854 5854 5858 5864 5863 5865 5867 5871 5875 5875 5876 5878 5878 5880 5880 5879 5883 5885 5887 5889
5842 5840 5839 5837 5836 5835 5834 5832 5831 5830 5830 5830 5832 5834 5835 5829 5833 5833 5832 5834 5836 5837 5840 5841 5843 5848 5852 5856 5856 5858 5861 5866 5869 5870 5873 5875 5875 5878 5879 5880 5880 5884 5884 5886 5888
5836 5834 5832 5830 5829 5826 5826 5825 5824 5823 5822 5824 5825 5827 5825 5824 5824 5824 5827 5828 5829 5829 5832 5832 5835 5840 5844 5849 5852 5853 5856 5863 5866 5869 5873 5875 5875 5877 5879 5880 5880 5883 5884 5885 5886
5830 5827 5824 5823 5820 5818 5816 5816 5814 5813 5814 5815 5817 5819 5817 5818 5818 5820 5821 5820 5822 5823 5824 5825 5829 5834 5837 5840 5845 5847 5855 5861 5863 5867 5873 5873 5874 5876 5878 5879 5880 5882 5884 5886 5887
5821 5818 5815 5813 5810 5808 5806 5805 5804 5801 5802 5804 5805 5809 5807 5809 5809 5809 5812 5810 5814 5814 5814 5819 5823 5827 5830 5832 5839 5845 5852 5856 5860 5864 5867 5870 5870 5874 5877 5877 5879 5881 5883 5886 5887
5813 5808 5804 5801 5798 5795 5794 5793 5792 5788 5788 5790 5792 5793 5794 5797 5798 5796 5801 5799 5801 5804 5808 5811 5814 5821 5833 5835 5838 5841 5844 5851 5857 5859 5863 5866 5868 5869 5875 5875 5876 5880 5882 5883 5885
5804 5799 5792 5786 5782 5779 5775 5775 5775 5773 5772 5773 5774 5777 5781 5783 5780 5782 5788 5789 5791 5797 5799 5800 5806 5822 5820 5822 5828 5831 5836 5845 5852 5853 5857 5858 5864 5866 5871 5873 5874 5877 5879 5881 5884
5791 5783 5776 5772 5768 5764 5761 5757 5754 5752 5755 5752 5753 5759 5765 5768 5763 5767 5774 5776 5780 5783 5787 5792 5809 5809 5810 5814 5818 5822 5828 5839 5849 5846 5851 5852 5854 5857 5864 5865 5869 5872 5875 5877 5881
5776 5769 5763 5759 5756 5750 5746 5741 5738 5734 5737 5732 5735 5737 5743 5747 5747 5749 5754 5762 5766 5771 5774 5778 5796 5792 5799 5805 5812 5815 5829 5835 5838 5839 5841 5847 5847 5850 5857 5862 5867 5870 5872 5875 5878
5766 5759 5752 5746 5743 5739 5735 5730 5728 5726 5721 5721 5722 5722 5725 5727 5730 5735 5733 5742 5749 5756 5760 5770 5782 5782 5790 5802 5805 5818 5819 5823 5831 5832 5836 5835 5836 5842 5851 5854 5865 5869 5870 5873 5876
5754 5748 5741 5736 5733 5730 5726 5723 5722 5719 5714 5709 5711 5712 5714 5711 5713 5718 5718 5724 5731 5737 5746 5752 5764 5770 5784 5791 5793 5807 5808 5812 5818 5823 5817 5828 5828 5833 5840 5855 5861 5867 5868 5871 5874
5743 5738 5732 5727 5724 5721 5719 5716 5713 5709 5704 5700 5699 5699 5702 5704 5699 5701 5705 5708 5711 5719 5728 5736 5746 5757 5765 5775 5780 5788 5794 5797 5801 5802 5802 5823 5820 5828 5837 5852 5855 5862 5866 5870 5871
5733 5728 5722 5718 5716 5713 5710 5707 5701 5697 5693 5690 5689 5687 5688 5690 5688 5686 5690 5689 5692 5701 5710 5717 5727 5745 5755 5762 5771 5777 5782 5783 5785 5791 5801 5816 5804 5820 5838 5849 5852 5855 5861 5864 5867
5724 5719 5714 5711 5709 5705 5702 5697 5691 5686 5682 5678 5676 5676 5675 5676 5674 5673 5675 5674 5679 5686 5693 5700 5716 5726 5734 5752 5762 5767 5770 5784 5787 5791 5796 5803 5808 5823 5830 5836 5845 5849 5854 5855 5860
5717 5712 5708 5704 5701 5696 5693 5686 5679 5674 5669 5663 5661 5660 5659 5659 5659 5660 5661 5661 5668 5673 5675 5687 5702 5715 5727 5735 5745 5759 5769 5771 5775 5779 5782 5792 5799 5813 5822 5832 5840 5845 5849 5853 5856
5708 5704 5701 5697 5693 5688 5682 5676 5668 5662 5655 5651 5648 5645 5644 5643 5643 5643 5645 5647 5652 5660 5665 5674 5686 5705 5710 5717 5739 5747 5754 5762 5771 5776 5777 5788 5793 5813 5819 5826 5836 5844 5848 5853 5856
5701 5697 5695 5691 5685 5678 5671 5663 5656 5650 5642 5637 5634 5631 5630 5629 5628 5626 5628 5631 5640 5644 5652 5663 5669 5690 5702 5716 5730 5735 5745 5750 5756 5764 5768 5780 5787 5804 5816 5822 5828 5836 5843 5848 5852
5697 5692 5687 5683 5676 5668 5660 5651 5642 5637 5630 5625 5621 5618 5615 5613 5613 5612 5615 5617 5623 5633 5640 5652 5655 5680 5695 5709 5713 5718 5733 5747 5755 5759 5764 5773 5787 5799 5807 5814 5821 5828 5834 5840 5845
5693 5687 5680 5675 5667 5657 5649 5639 5631 5624 5619 5614 5610 5605 5602 5602 5602 5603 5605 5605 5609 5617 5628 5639 5647 5662 5683 5692 5696 5709 5723 5733 5739 5748 5757 5761 5781 5789 5800 5809 5816 5820 5825 5830 5836
5687 5682 5673 5665 5658 5646 5637 5629 5621 5614 5609 5603 5599 5594 5591 5592 5592 5592 5593 5593 5598 5606 5617 5627 5639 5650 5670 5683 5691 5706 5719 5728 5731 5743 5748 5767 5775 5784 5791 5800 5806 5812 5818 5821 5826
5682 5677 5669 5660 5649 5640 5629 5620 5612 5605 5601 5595 5589 5584 5583 5583 5582 5583 5582 5584 5587 5597 5606 5616 5631 5643 5663 5682 5692 5702 5713 5716 5727 5737 5744 5763 5771 5779 5784 5792 5799 5805 5810 5817 5823
5681 5674 5665 5656 5646 5636 5624 5613 5605 5598 5594 5587 5581 5578 5576 5575 5574 5576 5573 5574 5577 5587 5599 5612 5623 5636 5662 5675 5682 5692 5698 5709 5718 5726 5740 5755 5768 5771 5779 5786 5793 5800 5807 5813 5818